Cloud_Cover
85 15 97 65 33 10 8 5 96 80 29 38 90 92 78 100 99 96 100 37 5 48 5 5 5 5 12 90 95 100 81 100 38 100 100 100 87 24 26 94 98 72 64
7 4 6 27 42 5 7 25 89 11 6 9 7 66 52 35 100 100 58 100 67 20 5 7 16 38 43 42 100 91 100 42 9 100 78 98 96 88 77 100 100 98 59
0 3 4 2 5 5 93 5 62 72 100 6 9 38 36 26 65 12 34 5 24 30 47 25 5 6 48 91 89 5 7 5 14 100 100 100 78 92 100 94 87 93 59
16 3 5 4 5 5 5 5 98 100 44 42 63 5 96 81 50 58 80 5 5 18 44 5 12 10 27 40 100 51 89 59 99 100 96 100 100 100 100 100 100 100 100
99 9 3 5 20 12 57 18 14 13 5 5 5 5 30 17 99 73 80 98 58 38 39 91 98 93 84 81 89 100 100 100 100 100 100 87 100 100 100 100 87 95 85
66 81 23 2 4 25 67 31 6 7 15 29 5 9 23 64 12 38 100 100 100 93 100 86 61 97 99 97 100 100 100 100 100 100 99 91 100 99 52 40 52 30 39
56 56 99 6 0 0 62 100 100 100 80 92 63 23 72 67 5 72 100 100 100 96 97 87 100 75 100 100 100 100 100 100 97 92 74 92 49 31 43 62 80 39 61
5 27 89 10 7 2 5 87 100 100 100 100 100 87 57 43 63 48 60 100 100 100 100 72 91 90 84 100 100 100 100 76 99 100 100 99 100 100 99 82 88 99 100
1 0 0 0 5 21 47 94 84 100 100 100 100 100 100 90 100 22 69 28 32 40 77 100 100 100 99 100 100 72 55 65 92 98 100 99 90 97 98 96 39 50 17
5 0 0 0 0 80 70 91 100 96 94 45 100 86 26 86 80 65 4 12 31 5 13 62 100 100 100 100 100 100 100 99 79 86 76 78 60 8 15 48 100 45 43
0 0 0 0 0 12 100 100 100 100 100 79 49 12 5 4 6 3 5 5 5 5 5 9 86 100 100 100 100 100 100 100 100 100 100 100 99 99 100 100 100 96 40
4 0 0 0 0 2 89 100 100 100 100 45 84 66 79 20 2 0 5 68 77 38 85 84 18 72 100 100 100 100 100 100 100 100 100 100 100 100 78 41 5 5 12
3 0 0 0 0 5 98 100 100 100 92 100 86 68 5 5 3 4 5 6 34 1 84 100 100 100 100 100 100 100 100 100 98 44 90 95 75 47 36 33 15 5 5
5 0 0 0 0 1 17 90 100 100 100 100 100 100 100 50 5 5 9 12 6 0 2 6 42 91 100 100 100 100 98 80 57 93 92 100 100 88 64 58 49 35 29
36 45 5 8 11 15 36 11 42 100 100 100 100 100 100 10 42 5 30 34 17 7 3 0 0 1 10 15 37 96 100 100 100 100 100 100 100 100 100 100 97 48 19
0 34 94 5 1 13 22 5 25 100 100 100 100 52 9 5 5 5 5 5 76 42 62 6 47 5 1 0 0 0 5 5 98 73 97 100 100 100 89 79 15 18 16
0 0 0 0 0 0 22 12 77 100 100 100 100 4 5 8 7 1 2 0 2 4 4 2 4 4 4 4 0 0 5 0 2 2 5 66 99 91 100 100 100 53 71
5 1 0 0 0 1 93 15 76 100 100 100 31 1 2 18 3 0 5 4 3 2 3 3 1 37 42 0 0 0 0 0 0 0 0 14 42 91 64 51 63 99 88
4 5 5 0 0 27 100 100 100 98 100 100 4 1 4 9 16 5 83 74 40 5 5 5 5 0 14 8 5 5 0 0 0 0 0 2 56 53 100 92 65 40 90
36 5 5 4 0 79 100 100 99 99 100 100 8 27 26 19 34 32 6 100 68 42 5 2 1 65 98 100 74 52 5 0 0 0 0 0 0 0 100 95 10 23 56
96 88 22 0 0 22 100 100 100 100 60 55 99 100 74 25 61 72 87 97 20 3 0 0 0 23 99 100 100 36 12 5 4 0 0 12 0 0 1 46 1 0 14
16 9 5 26 5 100 100 100 100 100 99 100 100 70 90 55 67 66 100 23 19 1 0 0 0 0 27 100 98 17 22 5 5 5 5 0 0 3 5 15 3 0 0
4 5 5 5 5 100 100 100 100 100 100 100 100 100 100 100 100 100 100 5 0 0 0 0 0 17 98 99 27 5 5 5 5 5 5 5 5 5 5 1 4 5 4
3 5 29 97 100 99 100 100 100 100 100 100 100 99 98 100 100 94 5 5 1 0 0 0 0 89 100 100 88 16 13 17 64 100 30 0 1 0 2 5 5 5 5
100 100 100 100 100 95 96 100 93 100 100 86 27 6 6 18 63 95 14 5 0 0 0 0 5 68 100 100 100 100 100 80 10 5 2 5 5 1 5 29 9 5 5
100 100 65 81 98 100 97 100 100 100 73 98 85 85 98 100 52 20 5 12 4 0 9 4 30 9 45 38 75 89 9 5 5 50 8 5 5 5 28 62 8 5 5